Location: ????? ????
(37.9717°N, 23.4051°E)
Time: 14:13:31
(UTC+00:00)

CZ-4B R/B - Pass Details

Date: 18 April 2024
Orbit: 465 x 616 km, 97.9° (Epoch: 18 May)

Event Time Altitude Azimuth Distance (km) Brightness Sun altitude
Rises 18:00:34 0° 183° (S) 2,630 6.1 -11.1°
Reaches altitude 10° 18:02:48 10° 191° (S) 1,721 5.2 -11.5°
Maximum altitude 18:06:15 38° 260° (W) 772 4.1 -12.1°
Drops below altitude 10° 18:09:37 10° 330° (NNW) 1,667 6.1 -12.7°
Sets 18:11:44 0° 339° (NNW) 2,535 7.0 -13.1°
